This is the latest recevied weather packets stored in our database for station/object DL6MAA-11. If no packets are shown the sender has not sent any weather packets the latest 10 day(s).
| Time | Temp. | Humidity | Pressure | Rain* | Wind** | Luminosity | Snow |
|---|---|---|---|---|---|---|---|
| 1777295853 | 19.44° C | 37% | 1017.1 hPa | 0 mm | - | 471 W/m² | - |
| 1777295555 | 18.89° C | 37% | 1017.4 hPa | 0 mm | - | 480 W/m² | - |
| 1777295252 | 18.89° C | 36% | 1017.4 hPa | 0 mm | - | 499 W/m² | - |
| 1777294956 | 18.89° C | 36% | 1017.4 hPa | 0 mm | - | 517 W/m² | - |
| 1777294645 | 18.89° C | 37% | 1017.3 hPa | 0 mm | - | 522 W/m² | - |
| 1777294340 | 18.89° C | 36% | 1017.3 hPa | 0 mm | - | 524 W/m² | - |
| 1777294054 | 18.89° C | 39% | 1017.3 hPa | 0 mm | - | 529 W/m² | - |
| 1777293748 | 18.89° C | 37% | 1017.5 hPa | 0 mm | - | 545 W/m² | - |
| 1777293456 | 18.89° C | 38% | 1017.5 hPa | 0 mm | - | 543 W/m² | - |
| 1777293142 | 19.44° C | 39% | 1017.5 hPa | 0 mm | - | 543 W/m² | - |
| 1777292842 | 18.89° C | 39% | 1017.6 hPa | 0 mm | - | 548 W/m² | - |
| 1777292547 | 18.89° C | 38% | 1017.6 hPa | 0 mm | - | 552 W/m² | - |
| 1777292249 | 18.89° C | 37% | 1017.6 hPa | 0 mm | - | 557 W/m² | - |
| 1777291947 | 18.33° C | 36% | 1017.4 hPa | 0 mm | - | 547 W/m² | - |
| 1777291655 | 18.89° C | 35% | 1017.4 hPa | 0 mm | - | 552 W/m² | - |
| 1777291341 | 18.89° C | 37% | 1017.4 hPa | 0 mm | - | 559 W/m² | - |
| 1777291045 | 18.89° C | 37% | 1017.5 hPa | 0 mm | - | 568 W/m² | - |
| 1777290753 | 18.89° C | 39% | 1017.5 hPa | 0 mm | - | 566 W/m² | - |
| 1777290459 | 18.89° C | 38% | 1017.5 hPa | 0 mm | - | 606 W/m² | - |
| 1777290161 | 18.89° C | 41% | 1017.8 hPa | 0 mm | - | 617 W/m² | - |
| 1777289841 | 18.33° C | 40% | 1017.8 hPa | 0 mm | - | 603 W/m² | - |
| 1777289548 | 17.78° C | 39% | 1017.8 hPa | 0 mm | - | 613 W/m² | - |
| 1777289251 | 17.78° C | 39% | 1018.1 hPa | 0 mm | - | 371 W/m² | - |
| 1777288953 | 17.78° C | 40% | 1018.1 hPa | 0 mm | - | 612 W/m² | - |
| 1777288642 | 17.78° C | 40% | 1018.1 hPa | 0 mm | - | 309 W/m² | - |
* Rain since midnight (hover to see other rain measurements)
** Current wind speed in m/s (hover to see current wind gust speed)